This is the latest recevied weather packets stored in our database for station/object WD9U. If no packets are shown the sender has not sent any weather packets the latest 10 day(s).
| Time | Temp. | Humidity | Pressure | Rain* | Wind** | Luminosity | Snow |
|---|---|---|---|---|---|---|---|
| 1788570709 | 18.89° C | 100% | 1017.3 hPa | 0 mm | - | 0 W/m² | - |
| 1788570347 | 18.89° C | 100% | 1017.3 hPa | 0 mm | - | 0 W/m² | - |
| 1788569986 | 18.89° C | 100% | 1017.2 hPa | 0 mm | - | 0 W/m² | - |
| 1788569830 | 18.89° C | 100% | 1017.1 hPa | 0 mm | - | 0 W/m² | - |
| 1788569625 | 18.89° C | 100% | 1017.1 hPa | 0 mm | - | 0 W/m² | - |
| 1788569274 | 18.89° C | 100% | 1017 hPa | 0 mm | - | 0 W/m² | - |
| 1788568913 | 18.89° C | 100% | 1017.1 hPa | 0 mm | - | 0 W/m² | - |
| 1788568634 | 18.89° C | 100% | 1017 hPa | 0 mm | - | 0 W/m² | - |
| 1788568551 | 18.89° C | 100% | 1017 hPa | 0 mm | - | 1 W/m² | - |
| 1788568190 | 18.89° C | 100% | 1016.8 hPa | 0 mm | - | 2 W/m² | - |
| 1788567828 | 18.89° C | 100% | 1016.8 hPa | 0 mm | - | 2 W/m² | - |
| 1788567468 | 18.89° C | 100% | 1016.9 hPa | 0 mm | - | 4 W/m² | - |
| 1788567432 | 18.89° C | 100% | 1016.9 hPa | 0 mm | - | 4 W/m² | - |
| 1788567108 | 18.89° C | 100% | 1016.9 hPa | 0 mm | - | 4 W/m² | - |
| 1788566746 | 18.89° C | 100% | 1016.8 hPa | 0 mm | - | 6 W/m² | - |
| 1788566384 | 18.89° C | 100% | 1016.8 hPa | 0 mm | - | 8 W/m² | - |
| 1788566237 | 18.89° C | 100% | 1016.8 hPa | 0 mm | - | 9 W/m² | - |
| 1788566031 | 18.89° C | 100% | 1016.8 hPa | 0 mm | - | 10 W/m² | - |
| 1788565676 | 19.44° C | 100% | 1016.7 hPa | 0 mm | - | 13 W/m² | - |
| 1788565310 | 19.44° C | 100% | 1016.9 hPa | 0 mm | - | 15 W/m² | - |
| 1788565032 | 19.44° C | 100% | 1016.8 hPa | 0 mm | - | 18 W/m² | - |
| 1788564949 | 19.44° C | 100% | 1016.8 hPa | 0 mm | - | 16 W/m² | - |
| 1788564588 | 19.44° C | 100% | 1016.6 hPa | 0 mm | - | 20 W/m² | - |
| 1788564226 | 19.44° C | 100% | 1016.6 hPa | 0 mm | - | 29 W/m² | - |
| 1788563837 | 19.44° C | 100% | 1016.5 hPa | 0 mm | - | 33 W/m² | - |
* Rain latest hour (hover to see other rain measurements)
** Current wind speed in m/s (hover to see current wind gust speed)